Weather History for KLHX - March, 2013

Change the Weather History Date:

Saturday, March 2, 2013

  Actual Average Record
Temperature  
Mean Temperature 47 °F 40 °F  
Max Temperature 66 °F 54 °F 79 °F (1967)
Min Temperature 28 °F 25 °F -16 °F (1960)
Degree Days  
Heating Degree Days 18 25  
Month to date heating degree days 44 51  
Since 1 July heating degree days 3820 4152  
Cooling Degree Days 0 0  
Month to date cooling degree days 0 0  
Year to date cooling degree days 0 0  
Moisture  
Dew Point 17 °F    
Average Humidity 37    
Maximum Humidity 58    
Minimum Humidity 16    
Precipitation  
Precipitation 0.00 in 0.02 in 0.20 in (1969)
Month to date precipitation 0.00 0.04  
Year to date precipitation 0.11 0.69  
Sea Level Pressure  
Sea Level Pressure 30.19 in    
Wind  
Wind Speed 8 mph (West)    
Max Wind Speed 22 mph    
Max Gust Speed 24 mph    
Visibility 10 miles    
Events      
T = Trace of Precipitation, MM = Missing Value Source: NWS Daily Summary

Daily Weather History Graph

Daily Weather History Graph

Search for Another Location

Airport or City:

Trip Planner

Search our weather history database for the weather conditions in past years. The results will help you decide how hot, cold, wet, or windy it might be!

Date:

Astronomy

Mar. 02, 2013 Rise Set
Actual Time 6:23 AM MST 5:48 PM MST
Civil Twilight 5:57 AM MST 6:15 PM MST
Nautical Twilight 5:27 AM MST 6:45 PM MST
Astronomical Twilight 4:56 AM MST 7:16 PM MST
Moon 11:24 PM MST (3/2) 8:59 AM MST (3/2)
Length of Visible Light 12h 17m
Length of Day
11h 24m
Waning Gibbous, 73% of the Moon is Illuminated
Mar 2
Waning Gibbous
Mar 4
Last Quarter
Mar 11
New
Mar 19
First Quarter
Mar 27
Full

Hourly Weather History & Observations

Time (MST) Temp. Windchill Dew Point Humidity Pressure Visibility Wind Dir Wind Speed Gust Speed Precip Events Conditions
12:53 AM 35.1 °F 29.3 °F 15.1 °F 44% 30.30 in 10.0 mi WNW 6.9 mph - N/A   Overcast
1:53 AM 34.0 °F 24.6 °F 15.1 °F 46% 30.29 in 10.0 mi West 13.8 mph - N/A   Scattered Clouds
2:53 AM 30.0 °F 24.1 °F 14.0 °F 51% 30.29 in 10.0 mi West 5.8 mph - N/A   Clear
3:53 AM 28.9 °F 21.9 °F 14.0 °F 54% 30.28 in 10.0 mi WSW 6.9 mph - N/A   Clear
4:53 AM 28.9 °F 16.9 °F 15.1 °F 56% 30.28 in 10.0 mi West 17.3 mph - N/A   Clear
5:53 AM 30.9 °F 18.4 °F 16.0 °F 54% 30.28 in 10.0 mi West 20.7 mph - N/A   Clear
6:53 AM 30.0 °F 21.7 °F 16.0 °F 56% 30.34 in 10.0 mi WSW 9.2 mph - N/A   Clear
7:53 AM 35.1 °F 26.4 °F 18.0 °F 50% 30.32 in 10.0 mi West 12.7 mph - N/A   Clear
8:53 AM 43.0 °F 36.4 °F 19.0 °F 38% 30.30 in 10.0 mi West 12.7 mph - N/A   Clear
9:53 AM 51.1 °F - 19.9 °F 29% 30.27 in 10.0 mi West 15.0 mph - N/A   Clear
10:53 AM 57.0 °F - 19.9 °F 24% 30.23 in 10.0 mi West 4.6 mph - N/A   Clear
11:53 AM 62.1 °F - 19.9 °F 20% 30.20 in 10.0 mi WSW 9.2 mph - N/A   Clear
12:53 PM 63.0 °F - 19.0 °F 18% 30.16 in 10.0 mi Calm Calm - N/A   Clear
1:53 PM 64.0 °F - 18.0 °F 17% 30.13 in 10.0 mi NW 6.9 mph - N/A   Clear
2:53 PM 64.9 °F - 18.0 °F 16% 30.11 in 10.0 mi North 6.9 mph - N/A   Clear
3:53 PM 64.0 °F - 17.1 °F 16% 30.10 in 10.0 mi Calm Calm - N/A   Clear
4:53 PM 64.0 °F - 17.1 °F 16% 30.09 in 10.0 mi Calm Calm - N/A   Clear
6:53 PM 54.0 °F - 17.1 °F 23% 30.10 in 10.0 mi SE 4.6 mph - N/A   Clear
7:53 PM 51.1 °F - 17.1 °F 26% 30.09 in 10.0 mi SE 5.8 mph - N/A   Clear
8:53 PM 50.0 °F - 17.1 °F 27% 30.07 in 10.0 mi ESE 3.5 mph - N/A   Clear
9:53 PM 43.0 °F 40.3 °F 15.1 °F 32% 30.06 in 10.0 mi NE 4.6 mph - N/A   Clear
10:53 PM 39.0 °F 32.8 °F 15.1 °F 38% 30.02 in 10.0 mi ENE 9.2 mph - N/A   Clear
11:53 PM 37.9 °F - 15.1 °F 39% 30.00 in 10.0 mi Calm Calm - N/A   Clear